Location: ???????????
(44.4062°N, 135.3991°E)
Time: 01:26:35
(UTC+00:00)

Cosmos 2082 Rocket - Pass Details

Date: 19 May 2025
Orbit: 832 x 853 km, 71.0° (Epoch: 16 June)

Event Time Altitude Azimuth Distance (km) Brightness Sun altitude
Exits shadow 13:13:10 43° 182° (S) 1,158 2.5 -21.6°
Maximum altitude 13:15:00 71° 112° (ESE) 882 2.1 -21.8°
Drops below altitude 10° 13:20:35 10° 29° (NNE) 2,454 5.1 -22.2°
Sets 13:23:03 0° 28° (NNE) 3,394 5.9 -22.4°
